"2022-07-17 00:01:00",3028005,1.256667,305.0667,0.928337,0.02385137,1.29,0,0.7973334,308.5999,2.153894,0.03530187,0.86,0,-999,0,10.01,84.7,9.45,9.74,0.2,0,0,8.35,13.27,0.2,102.8304,3.306,3.307,3.305,100,0,0,0,169.2,107,107.1
"2022-07-17 00:02:00",3028006,1.143333,307.9996,2.250749,0.03047768,1.19,0,0.7153332,308.3998,1.818353,0.03997776,0.77,0,-999,0,10.01,84.7,9.41,9.66,0.2,0,0,8.34,13.27,0.2,102.8217,3.304,3.306,3.304,100,0,0,0,169.2,107,107.1
"2022-07-17 00:03:00",3028007,1.151333,310.3998,1.583165,0.07727583,1.27,0,0.6926666,310.4669,2.186744,0.0264491,0.74,0,-999,0,10.01,84.7,9.43,9.66,0.2,0,0,8.32,13.26,0.2,102.8135,3.306,3.307,3.304,100,0,0,0,169.2,107,107.1
"2022-07-17 00:04:00",3028008,1.192667,311.2667,0.772042,0.02462161,1.24,0,0.8,311.7334,1.806144,0.03366502,0.84,0,-999,0,10.01,84.7,9.47,9.7,0.2,0,0,8.3,13.27,0.2,102.8277,3.306,3.307,3.305,100,0,0,0,169.2,107,107
"2022-07-17 00:05:00",3028009,1.205333,310.3334,1.19262,0.05044689,1.27,0,0.7793333,307.6,1.306349,0.0299926,0.85,0,-999,0,10.01,84.7,9.52,9.74,0.2,0,0,8.29,13.27,0.2,102.8277,3.307,3.307,3.304,100,0,0,0,169.2,107,107
"2022-07-17 00:06:00",3028010,1.284,308.1333,0.6180322,0.04543126,1.35,0,0.6800001,305.2,1.326571,0.05316641,0.75,0,-999,0,10.01,84.7,9.5,9.74,0.2,0,0,8.28,13.26,0.2,102.8186,3.304,3.306,3.304,100,0,0,0,169.2,107,107
"2022-07-17 00:07:00",3028011,1.169333,308.6,0.711358,0.04552899,1.25,0,0.576,303.8666,2.525639,0.05003999,0.64,0,-999,0,10.01,84.7,9.44,9.69,0.2,0,0,8.26,13.27,0.2,102.8168,3.304,3.306,3.304,100,0,0,0,169.2,107,107
"2022-07-17 00:08:00",3028012,1.093333,310.9333,1.062246,0.03806428,1.18,0,0.4786667,310.4616,3.977878,0.03008137,0.55,0,-999,0,10.01,84.7,9.39,9.62,0.2,0,0,8.25,13.26,0.2,102.819,3.305,3.305,3.304,100,0,0,0,169.2,107,107
"2022-07-17 00:09:00",3028013,0.9606667,314.7334,1.651912,0.02048306,1,0,0.432,307.2664,1.651734,0.02196968,0.49,0,-999,0,10.01,84.7,9.32,9.56,0.2,0,0,8.23,13.27,0.2,102.8036,3.305,3.305,3.303,100,0,0,0,169.2,107,107
"2022-07-17 00:10:00",3028014,1.039333,312.2667,0.9284423,0.06244642,1.15,0,0.3913333,317.0007,2.280061,0.01783878,0.43,0,-999,0,10.01,84.7,9.27,9.5,0.2,0,0,8.22,13.27,0.2,102.814,3.307,3.307,3.304,100,0,0,0,169.2,107,107
"2022-07-17 00:11:00",3028015,1.074667,312.0001,1.316276,0.02028685,1.12,0,0.488,314.0666,2.234985,0.03290389,0.53,0,-999,0,10.01,84.7,9.25,9.45,0.2,0,0,8.21,13.26,0.2,102.8118,3.304,3.307,3.303,100,0,0,0,169.2,107,107
"2022-07-17 00:12:00",3028016,1.165333,311,0.9658421,0.04271872,1.25,0,0.6,313.3991,3.84328,0.02633124,0.63,0,-999,0,10.01,84.7,9.27,9.48,0.2,0,0,8.19,13.27,0.2,102.8153,3.304,3.304,3.303,100,0,0,0,169.2,107,107
"2022-07-17 00:13:00",3028017,1.154,309.3333,0.6994289,0.04127954,1.21,0,0.6506666,316.8006,1.832619,0.01806162,0.69,0,-999,0,10.01,84.7,9.33,9.53,0.2,0,0,8.18,13.26,0.2,102.8165,3.304,3.306,3.304,100,0,0,0,169.2,107,107
"2022-07-17 00:14:00",3028018,1.018667,307.5336,2.0933,0.07906678,1.18,0,0.6593333,315.4674,2.39021,0.02976949,0.69,0,-999,0,10.01,84.7,9.35,9.57,0.2,0,0,8.17,13.26,0.2,102.8142,3.305,3.305,3.304,100,0,0,0,169.2,107,107
"2022-07-17 00:15:00",3028019,0.956,303.0668,1.062154,0.03094081,1.01,0,0.5606667,303.8665,1.54315,0.02143723,0.62,0,-999,0,10.01,84.7,9.38,9.59,0.2,0,0,8.16,13.27,0.2,102.8112,3.303,3.305,3.303,100,0,0,0,169.2,107,107
"2022-07-17 00:16:00",3028020,0.9366667,301.2,1.275416,0.04541169,1.02,0,0.6206666,304.1333,1.454397,0.04611099,0.69,0,-999,0,10.01,84.7,9.42,9.6,0.2,0,0,8.15,13.26,0.2,102.8109,3.304,3.304,3.303,100,0,0,0,169.2,107,107
"2022-07-17 00:17:00",3028021,1.026,299.7333,0.9288638,0.05689757,1.12,0,0.728,304.0667,1.435976,0.03581432,0.78,0,-999,0,10.01,84.7,9.43,9.6,0.2,0,0,8.13,13.27,0.2,102.8195,3.305,3.305,3.304,100,0,0,0,169.2,107,107
"2022-07-17 00:18:00",3028022,1.108667,296.8666,1.024162,0.02276447,1.17,0,0.6733333,305.8001,2.314934,0.04756282,0.75,0,-999,0,10.01,84.7,9.37,9.57,0.2,0,0,8.13,13.27,0.2,102.8193,3.304,3.306,3.304,100,0,0,0,169.2,107,107
"2022-07-17 00:19:00",3028023,1.15,300.9334,1.123146,0.05692101,1.23,0,0.6733333,310.6668,2.412321,0.06649979,0.74,0,-999,0,10.01,84.7,9.31,9.51,0.2,0,0,8.11,13.26,0.2,102.8237,3.304,3.306,3.304,100,0,0,0,169.2,107,107
"2022-07-17 00:20:00",3028024,1.074667,302.4667,1.585945,0.05044689,1.18,0,0.6426666,314.2657,2.694378,0.05012872,0.74,0,-999,0,10.01,84.7,9.24,9.49,0.2,0,0,8.09,13.27,0.2,102.8138,3.304,3.306,3.304,100,0,0,0,169.2,107,107
"2022-07-17 00:21:00",3028025,1.150667,305.3334,1.738308,0.05790414,1.23,0,0.554,315.5334,2.679573,0.04207929,0.62,0,-999,0,10.01,84.7,9.21,9.46,0.2,0,0,8.08,13.26,0.2,102.8193,3.304,3.306,3.304,100,0,0,0,169.2,107,107
"2022-07-17 00:22:00",3028026,1.103333,308.2665,1.525992,0.02385138,1.14,0,0.4046667,320.9333,1.805981,0.02186828,0.45,0,-999,0,10.01,84.7,9.22,9.44,0.2,0,0,8.08,13.26,0.2,102.8197,3.306,3.306,3.304,100,0,0,0,169.2,107,107
"2022-07-17 00:23:00",3028027,1.099333,309.4666,1.087196,0.02542091,1.13,0,0.3113333,320.9334,2.541917,0.0338362,0.4,0,-999,0,10.01,84.7,9.25,9.44,0.2,0,0,8.06,13.26,0.2,102.8183,3.304,3.306,3.304,100,0,0,0,169.2,107,107
"2022-07-17 00:24:00",3028028,1.088667,310.0666,1.481601,0.01146976,1.11,0,0.4053333,316.1999,1.833047,0.02186829,0.44,0,-999,0,10.01,84.7,9.27,9.46,0.2,0,0,8.04,13.26,0.2,102.808,3.305,3.305,3.303,100,0,0,0,169.2,107,107
"2022-07-17 00:25:00",3028029,1.054,313.6,1.496588,0.03282277,1.11,0,0.3106667,326.071,7.017016,0.01569147,0.35,0,-999,0,10.01,84.7,9.26,9.44,0.2,0,0,8.03,13.27,0.2,102.8209,3.304,3.306,3.304,100,0,0,0,169.2,107,107
"2022-07-17 00:26:00",3028030,1.062667,314.5333,1.147112,0.0293182,1.13,0,0.322,331.9375,5.181533,0.01758788,0.36,0,-999,0,10.01,84.7,9.19,9.37,0.2,0,0,8.02,13.26,0.2,102.8124,3.304,3.306,3.303,100,0,0,0,169.2,107,107
"2022-07-17 00:27:00",3028031,1.052,317.5334,1.309791,0.02286193,1.09,0,0.3413334,327.1285,5.559422,0.02186829,0.38,0,-999,0,10.01,84.7,9.13,9.32,0.2,0,0,7.996,13.26,0.2,102.8075,3.304,3.304,3.303,100,0,0,0,169.2,107,107
"2022-07-17 00:28:00",3028032,0.996,317.6,1.019757,0.03684199,1.06,0,0.3526667,331.7343,3.622776,0.02462157,0.38,0,-999,0,10.01,84.7,9.11,9.29,0.2,0,0,7.993,13.26,0.2,102.8025,3.305,3.305,3.303,100,0,0,0,169.2,107,107
"2022-07-17 00:29:00",3028033,0.9133334,321.0668,1.389135,0.03238656,0.97,0,0.404,330.0644,3.510298,0.01451436,0.43,0,-999,0,10.01,84.7,9.09,9.26,0.2,0,0,7.973,13.26,0.2,102.8119,3.303,3.304,3.302,100,0,0,0,169.2,107,107
"2022-07-17 00:30:00",3028034,0.7986667,326.3325,2.624336,0.02963481,0.87,0,0.3493333,346.905,8.1749,0.04404039,0.42,0,-999,0,10.01,84.7,9.07,9.22,0.2,0,0,7.955,13.26,0.2,102.8118,3.304,3.304,3.303,100,0,0,0,169.2,107,107
"2022-07-17 00:31:00",3028035,0.7273333,342.2583,5.727248,0.0441915,0.79,0,0.3793333,340.2539,6.492632,0.03129787,0.4,0,-999,0,10.01,84.7,9.1,9.24,0.2,0,0,7.95,13.26,0.2,102.8025,3.302,3.304,3.302,100,0,0,0,169.2,107,107
"2022-07-17 00:32:00",3028036,0.6973333,350.3291,6.944473,0.05495048,0.79,0,0.342,14.99003,16.04314,0.016,0.37,0,-999,0,10.01,84.7,9.04,9.22,0.2,0,0,7.927,13.26,0.2,102.8077,3.304,3.304,3.303,100,0,0,0,169.2,107,107
"2022-07-17 00:33:00",3028037,0.8486666,13.30474,8.600602,0.1081275,1.1,0,0.3933333,350.1875,9.33381,0.02699794,0.44,0,-999,0,10.01,84.7,9.09,9.23,0.2,0,0,7.908,13.26,0.2,102.8106,3.304,3.305,3.303,100,0,0,0,169.2,107,107
"2022-07-17 00:34:00",3028038,0.7333333,1.156868,13.70244,0.1044137,1,0,0.3493333,33.91573,36.04066,0.04972815,0.43,0,-999,0,10.01,84.7,9.02,9.23,0.2,0,0,7.905,13.26,0.2,102.8016,3.304,3.304,3.303,100,0,0,0,169.2,107,107
"2022-07-17 00:35:00",3028039,0.6766667,12.3118,13.02548,0.1174545,0.92,0,0.3893333,9.331309,20.62327,0.04538234,0.45,0,-999,0,10.01,84.7,9.01,9.2,0.2,0,0,7.884,13.26,0.2,102.8071,3.303,3.304,3.303,100,0,0,0,169.2,107,107
"2022-07-17 00:36:00",3028040,0.7393333,2.132035,6.983486,0.09080872,0.94,0,0.482,338.5999,2.026461,0.03850542,0.54,0,-999,0,10.01,84.7,9.09,9.25,0.2,0,0,7.87,13.27,0.2,102.8126,3.304,3.304,3.303,100,0,0,0,169.2,107,107
"2022-07-17 00:37:00",3028041,0.7486667,341.6941,12.272,0.07915105,0.9,0,0.4426667,332.9342,3.836942,0.03714236,0.52,0,-999,0,10.01,84.7,9.06,9.22,0.2,0,0,7.862,13.26,0.2,102.8103,3.303,3.304,3.301,100,0,0,0,169.2,107,107
"2022-07-17 00:38:00",3028042,0.8913333,334.7415,11.02543,0.09597684,1.06,0,0.5053333,319.408,4.838069,0.07419494,0.58,0,-999,0,10.01,84.7,9.1,9.24,0.2,0,0,7.841,13.27,0.2,102.8012,3.303,3.304,3.303,100,0,0,0,169.2,107,107
"2022-07-17 00:39:00",3028043,0.9146666,323.2006,9.455129,0.1154046,1.18,0,0.508,306.6565,9.376789,0.1755828,0.81,0,-999,0,10.01,84.7,9.14,9.28,0.2,0,0,7.827,13.26,0.2,102.8089,3.301,3.304,3.301,100,0,0,0,169.2,107,107
"2022-07-17 00:40:00",3028044,1.151333,311.9984,4.114309,0.08632239,1.29,0,0.8133334,302.7343,3.567157,0.09822876,0.98,0,-999,0,10.01,84.7,9.1,9.27,0.2,0,0,7.817,13.26,0.2,102.8073,3.304,3.304,3.301,100,0,0,0,169.2,107,107
"2022-07-17 00:41:00",3028045,1.067333,311.6635,5.577081,0.1386827,1.26,0,0.8953333,302.3376,4.235414,0.07821909,1.04,0,-999,0,10.01,84.7,9.14,9.31,0.2,0,0,7.811,13.27,0.2,102.812,3.304,3.305,3.304,100,0,0,0,169.2,107,107
"2022-07-17 00:42:00",3028046,1.026,319.4104,12.13191,0.1484947,1.22,0,0.9159999,287.5344,3.77435,0.09443162,1.04,0,-999,0,10.01,84.7,9.26,9.36,0.2,0,0,7.797,13.26,0.2,102.8055,3.302,3.304,3.302,100,0,0,0,169.2,107,107
"2022-07-17 00:43:00",3028047,0.9986668,314.7401,12.08452,0.1210436,1.2,0,1.068,274.8659,3.61133,0.0811747,1.18,0,-999,0,10.01,84.7,9.44,9.49,0.2,0,0,7.791,13.26,0.2,102.8167,3.302,3.303,3.3,100,0,0,0,169.2,107,107
"2022-07-17 00:44:00",3028048,1.038,308.9918,8.648751,0.1419484,1.29,0,1.027333,268.205,5.10019,0.08028837,1.16,0,-999,0,10.01,84.7,9.39,9.51,0.2,0,0,7.777,13.26,0.2,102.8103,3.302,3.303,3.301,100,0,0,0,169.2,107,107
"2022-07-17 00:45:00",3028049,1.104,307.1744,13.28487,0.1484947,1.31,0,0.962,266.5994,5.211989,0.08125677,1.06,0,-999,0,10.01,84.7,9.28,9.49,0.2,0,0,7.774,13.26,0.2,102.8125,3.302,3.303,3.301,100,0,0,0,169.2,107,107
"2022-07-17 00:46:00",3028050,1.302667,294.7992,4.9417,0.1118014,1.48,0,1.055333,276.059,6.024221,0.1400888,1.26,0,-999,0,10.01,84.7,9.03,9.32,0.2,0,0,7.774,13.27,0.2,102.8118,3.305,3.305,3.302,100,0,0,0,169.2,107,107
"2022-07-17 00:47:00",3028051,1.392,293.993,6.063088,0.09792515,1.58,0,1.070667,274.3393,5.481764,0.0887293,1.21,0,-999,0,10.01,84.7,8.99,9.22,0.2,0,0,7.774,13.26,0.2,102.8124,3.303,3.305,3.302,100,0,0,0,169.2,107,107
"2022-07-17 00:48:00",3028052,1.388667,295.264,6.656797,0.1847112,1.66,0,1.01,275.8677,5.350976,0.112783,1.21,0,-999,0,10.01,84.7,9.01,9.19,0.2,0,0,7.774,13.27,0.2,102.8177,3.303,3.304,3.302,100,0,0,0,169.2,107,107
"2022-07-17 00:49:00",3028053,1.490667,286.8651,5.002227,0.1627049,1.72,0,1.000667,278.0015,3.285526,0.09608792,1.14,0,-999,0,10.01,84.7,9.04,9.22,0.2,0,0,7.774,13.26,0.2,102.8155,3.301,3.303,3.301,100,0,0,0,169.2,107,107
"2022-07-17 00:50:00",3028054,1.505333,288.8638,4.826469,0.1261146,1.71,0,0.8700001,285.4476,11.72795,0.1571411,1.1,0,-999,0,10.01,84.7,8.97,9.18,0.2,0,0,7.774,13.26,0.2,102.8141,3.301,3.302,3.3,100,0,0,0,169.2,107,107
"2022-07-17 00:51:00",3028055,1.477334,280.6657,4.18934,0.08598191,1.6,0,0.7546666,285.0869,10.07901,0.09999111,0.9,0,-999,0,10.01,84.7,8.83,9.09,0.2,0,0,7.774,13.27,0.2,102.8188,3.304,3.304,3.301,100,0,0,0,169.2,107,107
"2022-07-17 00:52:00",3028056,1.564,277.3992,4.238497,0.07657678,1.7,0,0.6266667,269.2004,4.067454,0.09533565,0.78,0,-999,0,10.01,84.7,8.82,9.03,0.2,0,0,7.782,13.26,0.2,102.8133,3.303,3.304,3.302,100,0,0,0,169.2,107,107
"2022-07-17 00:53:00",3028057,1.402667,274.7289,5.076888,0.08962638,1.55,0,0.6046667,278.3286,9.061009,0.06651984,0.73,0,-999,0,10.01,84.7,8.8,8.99,0.2,0,0,7.794,13.26,0.2,102.8121,3.301,3.304,3.301,100,0,0,0,169.2,107,107
"2022-07-17 00:54:00",3028058,1.571333,285.0008,3.326255,0.1041068,1.73,0,0.7513334,287.9323,3.641201,0.09783433,0.91,0,-999,0,10.01,84.7,8.77,8.97,0.2,0,0,7.794,13.27,0.2,102.8131,3.301,3.303,3.3,100,0,0,0,169.2,107,107
"2022-07-17 00:55:00",3028059,1.502,288.5326,4.962638,0.1113673,1.65,0,0.8866667,289.1274,5.568682,0.0897156,1.02,0,-999,0,10.01,84.7,8.81,8.98,0.2,0,0,7.794,13.26,0.2,102.8113,3.3,3.302,3.3,100,0,0,0,169.2,107,107
"2022-07-17 00:56:00",3028060,1.36,298.4648,7.244343,0.1239355,1.54,0,0.722,295.1854,8.59254,0.1461597,0.97,0,-999,0,10.01,84.7,8.74,8.93,0.2,0,0,7.811,13.27,0.2,102.81,3.3,3.302,3.3,100,0,0,0,169.2,107,107
"2022-07-17 00:57:00",3028061,1.39,305.9868,6.624978,0.1451896,1.71,0,0.758,299.7344,3.871398,0.06379132,0.85,0,-999,0,10.01,84.7,8.81,8.97,0.2,0,0,7.817,13.26,0.2,102.8063,3.301,3.302,3.3,100,0,0,0,169.2,107,107
"2022-07-17 00:58:00",3028062,1.347333,307.7229,5.537298,0.09102868,1.53,0,0.772,292.1993,3.10228,0.03145367,0.83,0,-999,0,10.01,84.7,8.97,9.08,0.2,0,0,7.817,13.26,0.2,102.8032,3.302,3.303,3.301,100,0,0,0,169.2,107,107
"2022-07-17 00:59:00",3028063,1.268667,309.1165,7.990513,0.124197,1.47,0,0.566,310.2083,14.21332,0.07631515,0.73,0,-999,0,10.01,84.7,8.93,9.12,0.2,0,0,7.817,13.27,0.2,102.7987,3.303,3.304,3.302,100,0,0,0,169.2,107,107
"2022-07-17 01:00:00",3028064,1.230667,307.5283,5.59338,0.1320841,1.45,0,0.5253333,306.2658,3.064667,0.02246973,0.57,0,-999,0,10.01,84.7,8.86,9.07,0.2,0,0,7.817,13.26,0.2,102.8004,3.303,3.304,3.302,100,0,0,0,169.2,107,107
"2022-07-17 01:01:00",3028065,1.121333,307.3273,6.845338,0.1327085,1.38,0,0.4306667,334.194,19.57485,0.09269784,0.51,0,-999,0,10.01,84.7,8.73,8.95,0.2,0,0,7.838,13.26,0.2,102.7983,3.302,3.303,3.3,100,0,0,0,169.2,107,107
"2022-07-17 01:02:00",3028066,1.135333,293.2672,4.448113,0.08413217,1.3,0,0.2486667,20.52656,36.58168,0.1246792,0.46,0,-999,0,10.01,84.7,8.58,8.81,0.2,0,0,7.839,13.26,0.2,102.7972,3.302,3.303,3.301,100,0,0,0,169.2,107,107
"2022-07-17 01:03:00",3028067,1.116667,297.8639,4.989781,0.06446359,1.28,0,0.3766667,4.150165,29.6682,0.06182411,0.59,0,-999,0,10.01,84.7,8.46,8.68,0.2,0,0,7.839,13.26,0.2,102.7936,3.301,3.303,3.301,100,0,0,0,169.2,107,107
"2022-07-17 01:04:00",3028068,1.165333,298.932,4.478606,0.1047452,1.35,0,0.3466667,329.3495,6.638718,0.05337499,0.42,0,-999,0,10.01,84.7,8.43,8.62,0.2,0,0,7.839,13.27,0.2,102.7981,3.302,3.304,3.301,100,0,0,0,169.2,107,107
"2022-07-17 01:05:00",3028069,1.255333,292.8014,3.388737,0.05226428,1.36,0,0.23,330.3942,8.275221,0.02529822,0.28,0,-999,0,10.01,84.7,8.41,8.58,0.2,0,0,7.839,13.26,0.2,102.7926,3.304,3.304,3.301,100,0,0,0,169.2,107,107
"2022-07-17 01:06:00",3028070,1.318667,290.2662,2.743286,0.04256237,1.38,0,0.16,330.8691,18.83623,0.04457204,0.23,0,-999,0,10.01,84.7,8.39,8.55,0.2,0,0,7.839,13.26,0.2,102.7895,3.301,3.303,3.3,100,0,0,0,169.2,107,107
"2022-07-17 01:07:00",3028071,1.261333,290.0617,4.401948,0.05976249,1.35,0,0.05199999,248.9402,30.66399,0.02535087,0.12,0,-999,0,10.01,84.7,8.37,8.54,0.2,0,0,7.839,13.27,0.2,102.7966,3.304,3.304,3.301,100,0,0,0,169.2,107,107
"2022-07-17 01:08:00",3028072,1.166,282.3998,3.198692,0.09350936,1.32,0,0.1906667,187.4049,8.372076,0.05157087,0.26,0,-999,0,10.01,84.7,8.35,8.51,0.2,0,0,7.839,13.26,0.2,102.7917,3.303,3.304,3.303,100,0,0,0,169.2,107,107
"2022-07-17 01:09:00",3028073,1.022667,271.9373,4.401658,0.09581001,1.19,0,0.2606667,163.1846,11.28762,0.02568181,0.32,0,-999,0,10.01,84.7,8.28,8.5,0.2,0,0,7.818,13.27,0.2,102.7924,3.302,3.303,3.301,100,0,0,0,169.2,107,107
"2022-07-17 01:10:00",3028074,0.6353334,248.7312,9.063586,0.08269355,0.87,0,0.4413333,128.521,6.422083,0.08163878,0.54,0,-999,0,10.01,84.7,8.26,8.47,0.2,0,0,7.817,13.27,0.2,102.7919,3.303,3.303,3.301,100,0,0,0,169.2,107,107
"2022-07-17 01:11:00",3028075,0.6339999,234.6671,3.84001,0.05425865,0.73,0,0.6273333,119.6001,2.727381,0.04170797,0.7,0,-999,0,10.01,84.7,8.33,8.49,0.2,0,0,7.817,13.26,0.2,102.7915,3.302,3.303,3.301,100,0,0,0,169.2,107,107
"2022-07-17 01:12:00",3028076,0.772,247.2063,6.269939,0.08930847,0.96,0,0.6353334,131.1923,6.987282,0.05748817,0.72,0,-999,0,10.01,84.7,8.31,8.49,0.2,0,0,7.817,13.27,0.2,102.7872,3.302,3.304,3.302,100,0,0,0,169.2,107,107
"2022-07-17 01:13:00",3028077,0.7953333,251.0676,3.972865,0.05886332,0.91,0,0.5293333,136.3241,6.409722,0.02792052,0.58,0,-999,0,10.01,84.7,8.25,8.43,0.2,0,0,7.817,13.26,0.2,102.7885,3.303,3.304,3.303,100,0,0,0,169.2,107,107
"2022-07-17 01:14:00",3028078,0.7026666,242.6688,4.124465,0.04878069,0.77,0,0.5806667,146.0671,2.204764,0.0281583,0.61,0,-999,0,10.01,84.7,8.24,8.39,0.2,0,0,7.817,13.26,0.2,102.7927,3.303,3.303,3.302,100,0,0,0,169.2,107,107
"2022-07-17 01:15:00",3028079,0.794,251.0001,2.503275,0.03611094,0.86,0,0.3986667,133.2658,4.567197,0.07684326,0.52,0,-999,0,10.01,84.7,8.2,8.36,0.2,0,0,7.809,13.27,0.2,102.7891,3.301,3.303,3.301,100,0,0,0,169.2,107,107
"2022-07-17 01:16:00",3028080,0.892,253.6007,2.893097,0.0361847,0.96,0,0.328,152.8278,8.651354,0.0183303,0.37,0,-999,0,10.01,84.7,8.18,8.31,0.2,0,0,7.802,13.26,0.2,102.7924,3.301,3.303,3.3,100,0,0,0,169.2,107,107
"2022-07-17 01:17:00",3028081,0.8753334,249.7317,2.953316,0.05031456,0.95,0,0.342,157.6602,5.026283,0.00832666,0.36,0,-999,0,10.01,84.7,8.18,8.34,0.2,0,0,7.794,13.27,0.2,102.7943,3.303,3.303,3.302,100,0,0,0,169.2,107,107
"2022-07-17 01:18:00",3028082,1.026,251.4679,2.333308,0.04896257,1.1,0,0.316,177.2659,3.694942,0.02303621,0.36,0,-999,0,10.01,84.7,8.19,8.34,0.2,0,0,7.794,13.26,0.2,102.7923,3.303,3.304,3.302,100,0,0,0,169.2,107,107
"2022-07-17 01:19:00",3028083,1.12,254.2,1.045439,0.01632992,1.15,0,0.2873333,174.0586,8.004758,0.009285594,0.3,0,-999,0,10.01,84.7,8.18,8.29,0.2,0,0,7.786,13.26,0.2,102.7929,3.3,3.302,3.3,100,0,0,0,169.2,107,107
"2022-07-17 01:20:00",3028084,1.115333,253.0667,1.181324,0.03283628,1.16,0,0.3606666,158.4662,2.093112,0.04905326,0.44,0,-999,0,10.01,84.7,8.15,8.27,0.2,0,0,7.774,13.27,0.2,102.7983,3.301,3.302,3.301,100,0,0,0,169.2,107,107
"2022-07-17 01:21:00",3028085,0.952,246.9333,3.510941,0.1419484,1.16,0,0.496,160.3333,1.192702,0.03072458,0.54,0,-999,0,10.01,84.7,8.11,8.27,0.2,0,0,7.774,13.26,0.2,102.7976,3.303,3.303,3.301,100,0,0,0,169.2,107,107
"2022-07-17 01:22:00",3028086,0.7753333,237.6666,1.534563,0.02418447,0.82,0,0.4873333,171.1866,8.786732,0.04312256,0.53,0,-999,0,10.01,84.7,8.04,8.23,0.2,0,0,7.774,13.26,0.2,102.7978,3.303,3.303,3.301,100,0,0,0,169.2,107,107
"2022-07-17 01:23:00",3028087,0.8666667,246.8085,7.42189,0.04894441,0.94,0,0.386,189.4615,6.838053,0.01404753,0.42,0,-999,0,10.01,84.7,8.03,8.22,0.2,0,0,7.753,13.27,0.2,102.8026,3.303,3.303,3.3,100,0,0,0,169.2,107,107
"2022-07-17 01:24:00",3028088,1.136667,256.5999,3.282151,0.07049035,1.22,0,0.3966667,210.6673,3.339173,0.0195505,0.43,0,-999,0,10.01,84.7,8.1,8.22,0.2,0,0,7.745,13.26,0.2,102.8004,3.303,3.304,3.302,100,0,0,0,169.2,107,107
"2022-07-17 01:25:00",3028089,1.208,248.8672,2.525988,0.03506186,1.27,0,0.4313334,212.8029,4.577172,0.06591577,0.55,0,-999,0,10.01,84.7,8.2,8.31,0.2,0,0,7.73,13.26,0.2,102.8016,3.301,3.303,3.301,100,0,0,0,169.2,107,107
"2022-07-17 01:26:00",3028090,1.114667,241.4034,4.948861,0.06955734,1.25,0,0.5513334,217.8666,1.66807,0.02629744,0.59,0,-999,0,10.01,84.7,8.26,8.39,0.2,0,0,7.729,13.26,0.2,102.8018,3.302,3.303,3.301,100,0,0,0,169.2,107,107
"2022-07-17 01:27:00",3028091,0.992,234.8665,1.961992,0.03902136,1.09,0,0.408,216.7992,2.534622,0.05049092,0.52,0,-999,0,10.01,84.7,8.27,8.39,0.2,0,0,7.72,13.26,0.2,102.8023,3.301,3.303,3.3,100,0,0,0,169.2,107,107
"2022-07-17 01:28:00",3028092,0.9306667,246.1332,4.1287,0.04218477,1.03,0,0.2746667,228.8,4.578245,0.02629744,0.33,0,-999,0,10.01,84.7,8.27,8.39,0.2,0,0,7.706,13.27,0.2,102.8027,3.303,3.303,3.301,100,0,0,0,169.2,107,107
"2022-07-17 01:29:00",3028093,1.106,252.3994,2.652781,0.1052489,1.22,0,0.416,238.5333,3.094908,0.0547479,0.5,0,-999,0,10.01,84.7,8.27,8.41,0.2,0,0,7.694,13.26,0.2,102.8081,3.302,3.304,3.301,100,0,0,0,169.2,107,107
"2022-07-17 01:30:00",3028094,1.270667,260.2674,2.293552,0.04654268,1.37,0,0.5453333,258.4789,6.816571,0.1059476,0.72,0,-999,0,10.01,84.7,8.28,8.44,0.2,0,0,7.686,13.26,0.2,102.8059,3.303,3.303,3.302,100,0,0,0,169.2,107,107
"2022-07-17 01:31:00",3028095,1.371333,265.5332,2.061244,0.02526304,1.42,0,0.7633333,259.2001,1.42331,0.04391911,0.86,0,-999,0,10.01,84.7,8.35,8.45,0.2,0,0,7.674,13.26,0.2,102.8074,3.302,3.303,3.302,100,0,0,0,169.2,107,107
"2022-07-17 01:32:00",3028096,1.442,269.5997,2.870309,0.06635259,1.58,0,0.9513333,252.9332,1.569191,0.04030992,1,0,-999,0,10.01,84.7,8.43,8.52,0.2,0,0,7.663,13.26,0.2,102.8125,3.303,3.303,3.301,100,0,0,0,169.2,107,107
"2022-07-17 01:33:00",3028097,1.402,274.9335,1.768735,0.06326663,1.51,0,0.9086667,254.1329,1.856926,0.07561894,1.03,0,-999,0,10.01,84.7,8.49,8.57,0.2,0,0,7.659,13.27,0.2,102.8134,3.302,3.302,3.301,100,0,0,0,169.2,107,107
"2022-07-17 01:34:00",3028098,1.368667,276.0641,4.29593,0.07535397,1.5,0,0.636,293.522,28.66327,0.1051855,0.77,0,-999,0,10.01,84.7,8.56,8.63,0.2,0,0,7.642,13.26,0.2,102.8139,3.301,3.303,3.301,100,0,0,0,169.2,107,107
"2022-07-17 01:35:00",3028099,1.269333,283.6667,1.776302,0.1230971,1.52,0,0.7293333,319.0798,18.25914,0.09490111,0.91,0,-999,0,10.01,84.7,8.36,8.51,0.2,0,0,7.641,13.26,0.2,102.8148,3.302,3.303,3.301,100,0,0,0,169.2,107,107
"2022-07-17 01:36:00",3028100,1.243333,279.6669,2.412848,0.06609756,1.35,0,0.6813333,297.5511,10.13713,0.0799055,0.78,0,-999,0,10.01,84.7,8.22,8.42,0.2,0,0,7.641,13.27,0.2,102.8154,3.302,3.303,3.301,100,0,0,0,169.2,107,107
"2022-07-17 01:37:00",3028101,1.254667,283.7995,2.736992,0.08546864,1.39,0,0.4713333,293.9905,7.830445,0.05667059,0.55,0,-999,0,10.01,84.7,8.16,8.34,0.2,0,0,7.636,13.26,0.2,102.8111,3.302,3.303,3.301,100,0,0,0,169.2,107,107
"2022-07-17 01:38:00",3028102,1.298,285.4007,3.59218,0.1653764,1.6,0,0.5446666,320.7355,4.522476,0.06312597,0.63,0,-999,0,10.01,84.7,8.11,8.27,0.2,0,0,7.629,13.27,0.2,102.8126,3.301,3.302,3.3,100,0,0,0,169.2,107,107
"2022-07-17 01:39:00",3028103,1.564667,283.4667,1.024066,0.05327497,1.65,0,0.5486667,309.5095,8.471364,0.02679968,0.6,0,-999,0,10.01,84.7,8.16,8.28,0.2,0,0,7.618,13.26,0.2,102.8105,3.302,3.303,3.301,100,0,0,0,169.2,107,107
"2022-07-17 01:40:00",3028104,1.548667,286.7328,2.54184,0.04897164,1.65,0,0.564,316.182,9.868347,0.05057008,0.67,0,-999,0,10.01,84.7,8.18,8.31,0.2,0,0,7.617,13.26,0.2,102.8124,3.303,3.303,3.301,100,0,0,0,169.2,107,107
"2022-07-17 01:41:00",3028105,1.588667,295.601,2.915841,0.04014418,1.66,0,0.5333333,330.6566,5.02315,0.04077036,0.59,0,-999,0,10.01,84.7,8.22,8.32,0.2,0,0,7.602,13.27,0.2,102.816,3.301,3.303,3.3,100,0,0,0,169.2,107,107
"2022-07-17 01:42:00",3028106,1.572,300.8668,1.359654,0.05344155,1.63,0,0.802,352.467,2.704107,0.09403546,0.96,0,-999,0,10.01,84.7,8.32,8.41,0.2,0,0,7.598,13.26,0.2,102.8087,3.3,3.301,3.3,100,0,0,0,169.2,107,107
"2022-07-17 01:43:00",3028107,1.690667,302.2667,1.289155,0.05893122,1.77,0,0.898,357.0572,5.150422,0.09034748,1.03,0,-999,0,10.01,84.7,8.32,8.42,0.2,0,0,7.598,13.26,0.2,102.8115,3.301,3.302,3.301,100,0,0,0,169.2,107,107
"2022-07-17 01:44:00",3028108,1.802,305.6662,1.69935,0.07203702,1.87,0,0.8866667,352.5329,5.338042,0.05448752,0.99,0,-999,0,10.01,84.7,8.36,8.46,0.2,0,0,7.587,13.26,0.2,102.8073,3.302,3.303,3.302,100,0,0,0,169.2,107,107
"2022-07-17 01:45:00",3028109,1.617334,307.1995,2.039226,0.09996442,1.8,0,0.8446666,356.6019,5.665393,0.06386097,0.92,0,-999,0,10.01,84.7,8.37,8.5,0.2,0,0,7.575,13.26,0.2,102.8066,3.3,3.303,3.3,100,0,0,0,169.2,107,107
"2022-07-17 01:46:00",3028110,1.804667,307.6,1.356627,0.1142434,2,0,0.9426666,353.9131,10.90769,0.1087791,1.06,0,-999,0,10.01,84.7,8.31,8.47,0.2,0,0,7.575,13.27,0.2,102.8082,3.301,3.302,3.3,100,0,0,0,169.2,107,107
"2022-07-17 01:47:00",3028111,1.945333,306.7332,1.12332,0.07437442,2.03,0,0.902,321.0572,5.621303,0.1393413,1.08,0,-999,0,10.01,84.7,8.32,8.45,0.2,0,0,7.557,13.27,0.2,102.8025,3.303,3.303,3.3,100,0,0,0,169.2,107,107
"2022-07-17 01:48:00",3028112,1.87,307.8646,3.157692,0.1245258,2.01,0,0.7646666,325.188,6.31145,0.1431953,0.96,0,-999,0,10.01,84.7,8.33,8.47,0.2,0,0,7.552,13.26,0.2,102.8028,3.3,3.303,3.3,100,0,0,0,169.2,107,107